Weather History for Flippin, AR

Change the Weather History Date:

Sunday, January 16, 2000

  Actual Average Record
Temperature  
Mean Temperature 58 °F -  
Max Temperature 64 °F 45 °F 66 °F (2012)
Min Temperature 53 °F 26 °F 8 °F (2009)
Degree Days  
Heating Degree Days 6    
Growing Degree Days 8 (Base 50)    
Moisture  
Dew Point 47 °F    
Average Humidity 65    
Maximum Humidity 72    
Minimum Humidity 59    
Precipitation  
Precipitation 0.00 in - - ()
Sea Level Pressure  
Sea Level Pressure 30.31 in    
Wind  
Wind Speed 4 mph (West)    
Max Wind Speed 9 mph    
Max Gust Speed -    
Visibility 10 miles    
Events      
Averages and records for this station are not official NWS values.
T = Trace of Precipitation, MM = Missing Value Source: NWS Daily Summary

Daily Weather History Graph

Daily Weather History Graph

Search for Another Location

Airport:

Trip Planner

Search our weather history database for the weather conditions in past years. The results will help you decide how hot, cold, wet, or windy it might be!

Date:

Astronomy

Jan. 16, 2000 Rise Set
Actual Time 7:20 AM CST 5:19 PM CST
Civil Twilight 6:52 AM CST 5:47 PM CST
Nautical Twilight 6:21 AM CST 6:19 PM CST
Astronomical Twilight 5:50 AM CST 6:49 PM CST
Moon 1:21 PM CST (1/16) 2:16 AM CST (1/16)
Length of Visible Light 10h 54m
Length of Day
9h 58m
Waxing Gibbous, 74% of the Moon is Illuminated
Jan 16
Waxing Gibbous
Jan 20
Full
Jan 28
Last Quarter
Feb 5
New
Feb 12
First Quarter

Hourly Weather History & Observations

Time (CST) Temp. Dew Point Humidity Pressure Visibility Wind Dir Wind Speed Gust Speed Precip Events Conditions
12:15 AM 55.4 °F 42.8 °F 63% 30.26 in 10.0 mi SSW 6.9 mph - N/A   Mostly Cloudy
12:35 AM 55.4 °F 42.8 °F 63% 30.26 in 10.0 mi SSW 8.1 mph - N/A   Mostly Cloudy
12:55 AM 55.4 °F 42.8 °F 63% 30.25 in 10.0 mi SSW 8.1 mph - N/A   Overcast
1:15 AM 55.4 °F 42.8 °F 63% 30.26 in 10.0 mi SSW 9.2 mph - N/A   Overcast
1:35 AM 55.4 °F 42.8 °F 63% 30.27 in 10.0 mi SSW 6.9 mph - N/A   Mostly Cloudy
1:55 AM 55.4 °F 42.8 °F 63% 30.27 in 10.0 mi SSW 6.9 mph - N/A   Mostly Cloudy
2:15 AM 57.2 °F 44.6 °F 63% 30.27 in 10.0 mi SSW 6.9 mph - N/A   Mostly Cloudy
2:35 AM 57.2 °F 44.6 °F 63% 30.27 in 10.0 mi WSW 3.5 mph - N/A   Mostly Cloudy
2:55 AM 55.4 °F 44.6 °F 67% 30.28 in 10.0 mi Calm Calm - N/A   Mostly Cloudy
3:15 AM 55.4 °F 44.6 °F 67% 30.28 in 10.0 mi Calm Calm - N/A   Scattered Clouds
3:55 AM 55.4 °F 44.6 °F 67% 30.28 in 10.0 mi Calm Calm - N/A   Scattered Clouds
4:15 AM 55.4 °F 44.6 °F 67% 30.28 in 10.0 mi Calm Calm - N/A   Scattered Clouds
4:35 AM 53.6 °F 44.6 °F 72% 30.28 in 10.0 mi Calm Calm - N/A   Scattered Clouds
4:55 AM 55.4 °F 44.6 °F 67% 30.28 in 10.0 mi Calm Calm - N/A   Scattered Clouds
5:15 AM 55.4 °F 44.6 °F 67% 30.29 in 10.0 mi Calm Calm - N/A   Scattered Clouds
5:35 AM 55.4 °F 44.6 °F 67% 30.29 in 10.0 mi Calm Calm - N/A   Scattered Clouds
5:55 AM 55.4 °F 46.4 °F 72% 30.30 in 10.0 mi Calm Calm - N/A   Scattered Clouds
6:15 AM 55.4 °F 44.6 °F 67% 30.30 in 10.0 mi Calm Calm - N/A   Scattered Clouds
6:35 AM 55.4 °F 46.4 °F 72% 30.31 in 10.0 mi Calm Calm - N/A   Partly Cloudy
6:55 AM 55.4 °F 46.4 °F 72% 30.31 in 10.0 mi Calm Calm - N/A   Scattered Clouds
7:15 AM 55.4 °F 46.4 °F 72% 30.32 in 10.0 mi Calm Calm - N/A   Mostly Cloudy
7:35 AM 55.4 °F 46.4 °F 72% 30.32 in 10.0 mi Calm Calm - N/A   Mostly Cloudy
7:55 AM 55.4 °F 46.4 °F 72% 30.33 in 10.0 mi Calm Calm - N/A   Mostly Cloudy
8:15 AM 55.4 °F 46.4 °F 72% 30.34 in 10.0 mi Calm Calm - N/A   Mostly Cloudy
8:35 AM 57.2 °F 46.4 °F 67% 30.34 in 10.0 mi Calm Calm - N/A   Mostly Cloudy
8:55 AM 57.2 °F 46.4 °F 67% 30.35 in 10.0 mi Calm Calm - N/A   Mostly Cloudy
9:15 AM 57.2 °F 48.2 °F 72% 30.35 in 10.0 mi Calm Calm - N/A   Mostly Cloudy
9:35 AM 59.0 °F 48.2 °F 67% 30.35 in 10.0 mi Calm Calm - N/A   Mostly Cloudy
9:55 AM 59.0 °F 48.2 °F 67% 30.35 in 10.0 mi Calm Calm - N/A   Mostly Cloudy
10:15 AM 60.8 °F 48.2 °F 63% 30.36 in 10.0 mi Calm Calm - N/A   Scattered Clouds
10:35 AM 60.8 °F 48.2 °F 63% 30.36 in 10.0 mi WSW 4.6 mph - N/A   Mostly Cloudy
10:55 AM 62.6 °F 50.0 °F 63% 30.35 in 10.0 mi WSW 3.5 mph - N/A   Mostly Cloudy
11:15 AM 64.4 °F 50.0 °F 59% 30.35 in 10.0 mi WSW 6.9 mph - N/A   Mostly Cloudy
11:35 AM 64.4 °F 50.0 °F 59% 30.35 in 10.0 mi WSW 6.9 mph - N/A   Mostly Cloudy
11:55 AM 64.4 °F 51.8 °F 64% 30.34 in 10.0 mi SW 4.6 mph - N/A   Mostly Cloudy
12:15 PM 64.4 °F 51.8 °F 64% 30.34 in 10.0 mi West 5.8 mph - N/A   Mostly Cloudy
12:35 PM 64.4 °F 51.8 °F 64% 30.33 in 10.0 mi Calm Calm - N/A   Mostly Cloudy
12:55 PM 64.4 °F 51.8 °F 64% 30.32 in 10.0 mi Calm Calm - N/A   Partly Cloudy
1:15 PM 64.4 °F 51.8 °F 64% 30.32 in 10.0 mi NE 4.6 mph - N/A   Partly Cloudy
1:35 PM 64.4 °F 50.0 °F 59% 30.31 in 10.0 mi Calm Calm - N/A   Mostly Cloudy
1:55 PM 64.4 °F 50.0 °F 59% 30.30 in 10.0 mi Calm Calm - N/A   Scattered Clouds
2:15 PM 64.4 °F 50.0 °F 59% 30.30 in 10.0 mi Calm Calm - N/A   Mostly Cloudy
2:35 PM 64.4 °F 50.0 °F 59% 30.29 in 10.0 mi NNE 4.6 mph - N/A   Mostly Cloudy
2:55 PM 64.4 °F 50.0 °F 59% 30.30 in 10.0 mi NNE 5.8 mph - N/A   Mostly Cloudy
3:15 PM 64.4 °F 50.0 °F 59% 30.30 in 10.0 mi NNE 5.8 mph - N/A   Mostly Cloudy
3:35 PM 62.6 °F 50.0 °F 63% 30.30 in 10.0 mi North 5.8 mph - N/A   Mostly Cloudy
3:55 PM 62.6 °F 50.0 °F 63% 30.30 in 10.0 mi NNE 5.8 mph - N/A   Mostly Cloudy
4:15 PM 62.6 °F 50.0 °F 63% 30.29 in 10.0 mi Calm Calm - N/A   Partly Cloudy
4:35 PM 62.6 °F 50.0 °F 63% 30.29 in 10.0 mi NNE 4.6 mph - N/A   Clear
4:55 PM 62.6 °F 50.0 °F 63% 30.29 in 10.0 mi ENE 4.6 mph - N/A   Partly Cloudy
5:15 PM 62.6 °F 50.0 °F 63% 30.29 in 10.0 mi NE 3.5 mph - N/A   Mostly Cloudy
5:35 PM 60.8 °F 50.0 °F 68% 30.30 in 10.0 mi NE 3.5 mph - N/A   Mostly Cloudy
5:55 PM 62.6 °F 48.2 °F 59% 30.31 in 10.0 mi NE 3.5 mph - N/A   Mostly Cloudy
6:15 PM 60.8 °F 48.2 °F 63% 30.32 in 10.0 mi NE 6.9 mph - N/A   Overcast
6:35 PM 60.8 °F 48.2 °F 63% 30.32 in 10.0 mi NE 5.8 mph - N/A   Overcast
6:55 PM 60.8 °F 48.2 °F 63% 30.32 in 10.0 mi East 4.6 mph - N/A   Overcast
7:15 PM 59.0 °F 50.0 °F 72% 30.33 in 10.0 mi East 4.6 mph - N/A   Overcast
7:35 PM 59.0 °F 48.2 °F 67% 30.34 in 10.0 mi East 3.5 mph - N/A   Overcast
7:55 PM 59.0 °F 50.0 °F 72% 30.33 in 10.0 mi East 3.5 mph - N/A   Overcast
8:15 PM 59.0 °F 48.2 °F 67% 30.33 in 10.0 mi ENE 3.5 mph - N/A   Mostly Cloudy
8:35 PM 59.0 °F 50.0 °F 72% 30.32 in 10.0 mi East 3.5 mph - N/A   Mostly Cloudy
8:55 PM 57.2 °F 50.0 °F 77% 30.32 in 10.0 mi ESE 3.5 mph - N/A   Overcast
9:15 PM 57.2 °F 51.8 °F 82% 30.33 in 10.0 mi Calm Calm - N/A   Mostly Cloudy
9:35 PM 57.2 °F 51.8 °F 82% 30.33 in 10.0 mi East 3.5 mph - N/A   Overcast
9:55 PM 57.2 °F 51.8 °F 82% 30.34 in 10.0 mi East 6.9 mph - N/A   Overcast
10:15 PM 57.2 °F 53.6 °F 88% 30.34 in 10.0 mi ESE 5.8 mph - N/A   Overcast
10:35 PM 57.2 °F 53.6 °F 88% 30.33 in 10.0 mi East 10.4 mph - N/A   Mostly Cloudy
10:55 PM 57.2 °F 51.8 °F 82% 30.34 in 10.0 mi East 6.9 mph - N/A   Overcast
11:15 PM 55.4 °F 51.8 °F 88% 30.35 in 10.0 mi East 11.5 mph - N/A   Overcast
11:35 PM 53.6 °F 46.4 °F 77% 30.35 in 10.0 mi East 13.8 mph 19.6 mph N/A   Overcast
11:55 PM 51.8 °F 46.4 °F 82% 30.36 in 10.0 mi ENE 9.2 mph - N/A   Overcast